Simultaneous Nadir Overpasses (SNOs) Predictions

Prediction of SNOs between METOP-A and NOAA-19 Satellite Orbit:

Table of predicted SNOs for the next 14.0 days since TLE Epoch: 9/11/2021
Index Date (METOP-A) Time (METOP-A) Lat,Lon (METOP-A) SZA (METOP-A ) Date (NOAA-19) Time (NOAA-19) Lat,Lon (NOAA-19) SZA (NOAA-19 ) Distance(km) Time Diff (sec)
1 09/22/2021 01:10:19 80.54, 164.43 80.22 09/22/2021 01:09:07 80.53, 164.30 80.21 2.55 72
2 09/22/2021 02:01:01 -80.53, -28.40 99.79 09/22/2021 02:00:03 -80.54, -28.33 99.78 1.38 58
3 09/22/2021 02:51:40 80.56, 139.26 80.26 09/22/2021 02:51:06 80.55, 139.24 80.26 0.70 34
4 09/22/2021 03:42:22 -80.54, -53.57 99.74 09/22/2021 03:42:02 -80.56, -53.40 99.73 3.26 20
5 09/22/2021 04:33:01 80.57, 114.09 80.31 09/22/2021 04:33:05 80.57, 114.18 80.31 1.57 4
6 09/22/2021 05:23:43 -80.56, -78.74 99.70 09/22/2021 05:24:02 -80.56, -78.82 99.70 1.48 19
7 09/22/2021 06:14:21 80.58, 88.92 80.35 09/22/2021 06:15:04 80.57, 88.76 80.34 3.14 43



Historial Predications of SNOs between METOP-A and NOAA-19
